Terminal Aerodrome Forecast
Issued by NWS Des Moines, IA

Home | Current Version | Previous Version | Text Only | Print | Product List | Glossary On
Versions: 1 2 3 4 5 6 7 8 9 10 11 12 13 14 15 16 17 18 19 20 21 22 23 24 25 26 27 28 29 30 31 32
000
FTUS43 KDMX 012338
TAFALO
TAF
KALO 012338Z 0200/0224 28009KT P6SM FEW015 BKN120
     FM020200 29007KT P6SM SKC
     FM021500 15007KT P6SM BKN110
     FM022100 16011KT P6SM BKN080 OVC110=

USA.gov is the U.S. government's official web portal to all federal, state and local government web resources and services.